| time (UTC) | temp F | wind direction | speed MPH | gust MPH | rain 1hr in | rain 24hr in | rain mn in | humidity % | barometer mb |
| 20260902143147 | 84 | 214 | 2.0 | 8.0 | 0.00 | 0.00 | 0.00 | 62 | 1018.8 |
| 20260902142646 | 84 | 212 | 4.0 | 7.0 | 0.00 | 0.00 | 0.00 | 62 | 1018.9 |
| 20260902142146 | 84 | 194 | 2.0 | 7.0 | 0.00 | 0.00 | 0.00 | 63 | 1018.8 |
| 20260902141645 | 83 | 94 | 3.0 | 8.0 | 0.00 | 0.00 | 0.00 | 64 | 1018.8 |
| 20260902141145 | 83 | 293 | 4.0 | 9.0 | 0.00 | 0.00 | 0.00 | 64 | 1018.9 |
| 20260902140644 | 82 | 238 | 4.0 | 9.0 | 0.00 | 0.00 | 0.00 | 65 | 1018.8 |
| 20260902140144 | 82 | 208 | 6.0 | 9.0 | 0.00 | 0.00 | 0.00 | 65 | 1018.8 |
| 20260902135643 | 82 | 218 | 7.0 | 8.0 | 0.00 | 0.00 | 0.00 | 65 | 1018.8 |
| 20260902135143 | 82 | 215 | 3.0 | 8.0 | 0.00 | 0.00 | 0.00 | 66 | 1018.8 |
| 20260902134723 | 81 | 214 | 5.0 | 5.0 | 0.00 | 0.00 | 0.00 | 66 | 1018.8 |
| 20260902134640 | 81 | 214 | 5.0 | 5.0 | 0.00 | 0.00 | 0.00 | 66 | 1018.8 |
| 20260902134139 | 81 | 239 | 3.0 | 8.0 | 0.00 | 0.00 | 0.00 | 67 | 1018.8 |
| 20260902133638 | 81 | 298 | 6.0 | 8.0 | 0.00 | 0.00 | 0.00 | 67 | 1018.9 |
| 20260902132636 | 80 | 266 | 6.0 | 9.0 | 0.00 | 0.00 | 0.00 | 69 | 1018.8 |
| 20260902132134 | 80 | 242 | 4.0 | 5.0 | 0.00 | 0.00 | 0.00 | 69 | 1018.7 |
| 20260902131634 | 80 | 300 | 4.0 | 7.0 | 0.00 | 0.00 | 0.00 | 70 | 1018.8 |
| 20260902130633 | 79 | 240 | 3.0 | 7.0 | 0.00 | 0.00 | 0.00 | 71 | 1018.8 |
| 20260902130131 | 79 | 211 | 1.0 | 9.0 | 0.00 | 0.00 | 0.00 | 72 | 1018.8 |
| 20260902125631 | 79 | 270 | 6.0 | 9.0 | 0.00 | 0.00 | 0.00 | 72 | 1018.9 |
| 20260902125130 | 79 | 264 | 3.0 | 8.0 | 0.00 | 0.00 | 0.00 | 73 | 1018.9 |
| 20260902124630 | 78 | 253 | 5.0 | 6.0 | 0.00 | 0.00 | 0.00 | 74 | 1018.8 |
| 20260902124129 | 78 | 238 | 1.0 | 4.0 | 0.00 | 0.00 | 0.00 | 76 | 1018.8 |
| 20260902123629 | 78 | 212 | 1.0 | 2.0 | 0.00 | 0.00 | 0.00 | 77 | 1018.7 |
| 20260902122127 | 77 | 66 | 0.0 | 0.0 | 0.00 | 0.00 | 0.00 | 79 | 1018.7 |
| 20260902121627 | 77 | 66 | 0.0 | 0.0 | 0.00 | 0.00 | 0.00 | 80 | 1018.7 |
| 20260902121202 | 76 | 66 | 0.0 | 0.0 | 0.00 | 0.00 | 0.00 | 80 | 1018.6 |
| 20260902121126 | 76 | 66 | 0.0 | 0.0 | 0.00 | 0.00 | 0.00 | 80 | 1018.6 |
| 20260902120623 | 76 | 66 | 0.0 | 0.0 | 0.00 | 0.00 | 0.00 | 81 | 1018.6 |
| 20260902120123 | 76 | 66 | 0.0 | 0.0 | 0.00 | 0.00 | 0.00 | 82 | 1018.6 |
| 20260902115123 | 75 | 66 | 0.0 | 0.0 | 0.00 | 0.00 | 0.00 | 83 | 1018.4 |
| 20260902114621 | 75 | 66 | 0.0 | 0.0 | 0.00 | 0.00 | 0.00 | 84 | 1018.3 |
| 20260902114121 | 75 | 66 | 0.0 | 0.0 | 0.00 | 0.00 | 0.00 | 84 | 1018.2 |
| 20260902113620 | 75 | 66 | 0.0 | 0.0 | 0.00 | 0.00 | 0.00 | 85 | 1018.1 |
| 20260902113120 | 75 | 66 | 0.0 | 0.0 | 0.00 | 0.00 | 0.00 | 85 | 1018.1 |
| 20260902112619 | 75 | 66 | 0.0 | 0.0 | 0.00 | 0.00 | 0.00 | 84 | 1018.0 |
| 20260902112119 | 75 | 66 | 0.0 | 0.0 | 0.00 | 0.00 | 0.00 | 85 | 1018.0 |
| 20260902111619 | 75 | 66 | 0.0 | 0.0 | 0.00 | 0.00 | 0.00 | 85 | 1018.0 |
| 20260902111118 | 75 | 66 | 0.0 | 0.0 | 0.00 | 0.00 | 0.00 | 84 | 1017.9 |
| 20260902110617 | 75 | 66 | 0.0 | 0.0 | 0.00 | 0.00 | 0.00 | 84 | 1017.9 |
| 20260902110116 | 75 | 66 | 0.0 | 0.0 | 0.00 | 0.00 | 0.00 | 85 | 1017.9 |
| 20260902105615 | 75 | 66 | 0.0 | 0.0 | 0.00 | 0.00 | 0.00 | 84 | 1017.8 |
| 20260902105115 | 75 | 66 | 0.0 | 0.0 | 0.00 | 0.00 | 0.00 | 84 | 1017.8 |
| 20260902104614 | 75 | 66 | 0.0 | 0.0 | 0.00 | 0.00 | 0.00 | 84 | 1017.9 |
| 20260902104114 | 75 | 66 | 0.0 | 2.0 | 0.00 | 0.00 | 0.00 | 84 | 1017.9 |
| 20260902103613 | 75 | 66 | 1.0 | 2.0 | 0.00 | 0.00 | 0.00 | 84 | 1018.0 |
| 20260902103113 | 75 | 93 | 0.0 | 0.0 | 0.00 | 0.00 | 0.00 | 84 | 1017.9 |
| 20260902102612 | 75 | 93 | 0.0 | 1.0 | 0.00 | 0.00 | 0.00 | 84 | 1017.9 |
| 20260902102111 | 75 | 93 | 0.0 | 2.0 | 0.00 | 0.00 | 0.00 | 84 | 1017.9 |
| 20260902101611 | 75 | 110 | 0.0 | 2.0 | 0.00 | 0.00 | 0.00 | 84 | 1017.9 |
| 20260902101111 | 75 | 111 | 0.0 | 2.0 | 0.00 | 0.00 | 0.00 | 83 | 1017.9 |
| 20260902100610 | 75 | 145 | 0.0 | 3.0 | 0.00 | 0.00 | 0.00 | 83 | 1017.9 |
| 20260902100109 | 75 | 117 | 2.0 | 0.0 | 0.00 | 0.00 | 0.00 | 83 | 1017.8 |
| 20260902095609 | 75 | 68 | 0.0 | 2.0 | 0.00 | 0.00 | 0.00 | 83 | 1017.8 |
| 20260902095108 | 75 | 68 | 0.0 | 3.0 | 0.00 | 0.00 | 0.00 | 83 | 1017.8 |
| 20260902094608 | 75 | 98 | 0.0 | 1.0 | 0.00 | 0.00 | 0.00 | 82 | 1017.8 |
| 20260902094107 | 75 | 79 | 0.0 | 0.0 | 0.00 | 0.00 | 0.00 | 82 | 1017.7 |
| 20260902093607 | 75 | 91 | 0.0 | 0.0 | 0.00 | 0.00 | 0.00 | 82 | 1017.8 |
| 20260902093108 | 75 | 91 | 0.0 | 0.0 | 0.00 | 0.00 | 0.00 | 82 | 1017.8 |
| 20260902092606 | 75 | 91 | 0.0 | 0.0 | 0.00 | 0.00 | 0.00 | 82 | 1017.8 |
| 20260902092105 | 75 | 91 | 0.0 | 0.0 | 0.00 | 0.00 | 0.00 | 81 | 1017.7 |
| 20260902091605 | 76 | 91 | 0.0 | 0.0 | 0.00 | 0.00 | 0.00 | 81 | 1017.8 |
| 20260902091104 | 76 | 91 | 0.0 | 0.0 | 0.00 | 0.00 | 0.00 | 81 | 1017.8 |
| 20260902090604 | 76 | 91 | 0.0 | 0.0 | 0.00 | 0.00 | 0.00 | 81 | 1017.7 |
| 20260902090104 | 76 | 91 | 0.0 | 0.0 | 0.00 | 0.00 | 0.00 | 80 | 1017.6 |
| 20260902085603 | 76 | 91 | 0.0 | 0.0 | 0.00 | 0.00 | 0.00 | 80 | 1017.6 |
| 20260902085102 | 76 | 91 | 0.0 | 0.0 | 0.00 | 0.00 | 0.00 | 80 | 1017.5 |
| 20260902084602 | 76 | 91 | 0.0 | 0.0 | 0.00 | 0.00 | 0.00 | 80 | 1017.5 |
| 20260902084100 | 76 | 91 | 0.0 | 0.0 | 0.00 | 0.00 | 0.00 | 80 | 1017.5 |
| 20260902083559 | 76 | 91 | 0.0 | 0.0 | 0.00 | 0.00 | 0.00 | 80 | 1017.4 |
| 20260902083059 | 76 | 91 | 0.0 | 0.0 | 0.00 | 0.00 | 0.00 | 79 | 1017.3 |
| 20260902082558 | 76 | 91 | 0.0 | 0.0 | 0.00 | 0.00 | 0.00 | 79 | 1017.3 |
| 20260902082058 | 76 | 91 | 0.0 | 0.0 | 0.00 | 0.00 | 0.00 | 79 | 1017.4 |
| 20260902081557 | 76 | 91 | 0.0 | 0.0 | 0.00 | 0.00 | 0.00 | 79 | 1017.3 |
| 20260902081057 | 77 | 91 | 0.0 | 0.0 | 0.00 | 0.00 | 0.00 | 78 | 1017.3 |
| 20260902080556 | 77 | 91 | 0.0 | 0.0 | 0.00 | 0.00 | 0.00 | 78 | 1017.3 |
| 20260902080056 | 77 | 91 | 0.0 | 0.0 | 0.00 | 0.00 | 0.00 | 78 | 1017.3 |
| 20260902075554 | 77 | 91 | 0.0 | 1.0 | 0.00 | 0.00 | 0.00 | 78 | 1017.3 |
| 20260902074552 | 77 | 193 | 0.0 | 1.0 | 0.00 | 0.00 | 0.00 | 78 | 1017.3 |
| 20260902074051 | 77 | 193 | 0.0 | 0.0 | 0.00 | 0.00 | 0.00 | 77 | 1017.2 |
| 20260902073550 | 77 | 46 | 0.0 | 1.0 | 0.00 | 0.00 | 0.00 | 78 | 1017.2 |
| 20260902073050 | 77 | 46 | 0.0 | 2.0 | 0.00 | 0.00 | 0.00 | 77 | 1017.3 |
| 20260902072549 | 77 | 238 | 0.0 | 0.0 | 0.00 | 0.00 | 0.00 | 77 | 1017.3 |
| 20260902071548 | 78 | 238 | 0.0 | 0.0 | 0.00 | 0.00 | 0.00 | 77 | 1017.1 |
| 20260902071048 | 78 | 238 | 0.0 | 0.0 | 0.00 | 0.00 | 0.00 | 75 | 1017.2 |
| 20260902070547 | 78 | 238 | 0.0 | 0.0 | 0.00 | 0.00 | 0.00 | 75 | 1017.2 |
| 20260902070046 | 78 | 238 | 0.0 | 0.0 | 0.00 | 0.00 | 0.00 | 75 | 1017.2 |
| 20260902065546 | 78 | 238 | 0.0 | 0.0 | 0.00 | 0.00 | 0.00 | 74 | 1017.2 |
| 20260902064044 | 80 | 238 | 0.0 | 0.0 | 0.00 | 0.00 | 0.00 | 71 | 1017.2 |
| 20260902063543 | 80 | 238 | 0.0 | 2.0 | 0.00 | 0.00 | 0.00 | 71 | 1017.2 |
| 20260902063042 | 80 | 238 | 0.0 | 3.0 | 0.00 | 0.00 | 0.00 | 71 | 1017.2 |
| 20260902062542 | 80 | 210 | 1.0 | 3.0 | 0.00 | 0.00 | 0.00 | 71 | 1017.3 |
| 20260902061540 | 80 | 257 | 2.0 | 3.0 | 0.00 | 0.00 | 0.00 | 71 | 1017.4 |
| 20260902061039 | 79 | 263 | 1.0 | 1.0 | 0.00 | 0.00 | 0.00 | 72 | 1017.4 |
| 20260902060539 | 79 | 256 | 0.0 | 0.0 | 0.00 | 0.00 | 0.00 | 72 | 1017.4 |
| 20260902055538 | 79 | 195 | 0.0 | 0.0 | 0.00 | 0.00 | 0.00 | 71 | 1017.4 |
| 20260902055037 | 79 | 195 | 0.0 | 0.0 | 0.00 | 0.00 | 0.00 | 71 | 1017.4 |
| 20260902054537 | 79 | 195 | 0.0 | 0.0 | 0.00 | 0.00 | 0.00 | 71 | 1017.4 |
| 20260902054036 | 79 | 195 | 0.0 | 0.0 | 0.00 | 0.00 | 0.00 | 71 | 1017.4 |
| 20260902053034 | 79 | 195 | 0.0 | 0.0 | 0.00 | 0.00 | 0.00 | 71 | 1017.4 |
| 20260902052534 | 79 | 195 | 0.0 | 0.0 | 0.00 | 0.00 | 0.00 | 71 | 1017.4 |
| 20260902051532 | 80 | 195 | 0.0 | 0.0 | 0.00 | 0.00 | 0.00 | 70 | 1017.4 |
| 20260902050532 | 80 | 195 | 0.0 | 0.0 | 0.00 | 0.00 | 0.00 | 69 | 1017.3 |
| 20260902050031 | 80 | 195 | 0.0 | 0.0 | 0.00 | 0.00 | 0.00 | 69 | 1017.2 |
| 20260902045530 | 80 | 195 | 0.0 | 0.0 | 0.00 | 0.00 | 0.00 | 69 | 1017.3 |
| 20260902045030 | 80 | 195 | 0.0 | 0.0 | 0.00 | 0.00 | 0.00 | 69 | 1017.3 |
| 20260902044529 | 80 | 195 | 0.0 | 0.0 | 0.00 | 0.00 | 0.00 | 69 | 1017.3 |
| 20260902044030 | 80 | 195 | 0.0 | 0.0 | 0.00 | 0.00 | 0.00 | 69 | 1017.3 |
| 20260902043027 | 80 | 195 | 0.0 | 0.0 | 0.00 | 0.00 | 0.00 | 68 | 1017.4 |
| 20260902042526 | 80 | 195 | 0.0 | 0.0 | 0.00 | 0.00 | 0.00 | 68 | 1017.4 |
| 20260902042026 | 81 | 195 | 0.0 | 0.0 | 0.00 | 0.00 | 0.00 | 67 | 1017.4 |
| 20260902041525 | 81 | 195 | 0.0 | 0.0 | 0.00 | 0.00 | 0.00 | 67 | 1017.5 |
| 20260902041024 | 81 | 195 | 0.0 | 0.0 | 0.00 | 0.00 | 0.00 | 67 | 1017.5 |
| 20260902040523 | 81 | 195 | 0.0 | 0.0 | 0.00 | 0.00 | 0.00 | 66 | 1017.5 |
| 20260902040023 | 81 | 195 | 0.0 | 0.0 | 0.00 | 0.00 | 0.00 | 66 | 1017.5 |
| 20260902035522 | 82 | 195 | 0.0 | 0.0 | 0.00 | 0.00 | 0.00 | 65 | 1017.4 |
| 20260902035022 | 82 | 195 | 0.0 | 0.0 | 0.00 | 0.00 | 0.00 | 64 | 1017.5 |
| 20260902034521 | 82 | 195 | 0.0 | 0.0 | 0.00 | 0.00 | 0.00 | 64 | 1017.5 |
| 20260902034020 | 83 | 195 | 0.0 | 0.0 | 0.00 | 0.00 | 0.00 | 63 | 1017.4 |
| 20260902033520 | 83 | 195 | 0.0 | 0.0 | 0.00 | 0.00 | 0.00 | 62 | 1017.5 |
| 20260902033019 | 83 | 195 | 0.0 | 0.0 | 0.00 | 0.00 | 0.00 | 61 | 1017.4 |
| 20260902032519 | 84 | 195 | 0.0 | 0.0 | 0.00 | 0.00 | 0.00 | 60 | 1017.4 |
| 20260902032018 | 84 | 195 | 0.0 | 0.0 | 0.00 | 0.00 | 0.00 | 60 | 1017.4 |
| 20260902031518 | 84 | 195 | 0.0 | 0.0 | 0.00 | 0.00 | 0.00 | 59 | 1017.4 |
| 20260902031017 | 85 | 195 | 0.0 | 3.0 | 0.00 | 0.00 | 0.00 | 58 | 1017.3 |
| 20260902030516 | 85 | 245 | 2.0 | 3.0 | 0.00 | 0.00 | 0.00 | 57 | 1017.4 |
| 20260902030015 | 85 | 233 | 2.0 | 5.0 | 0.00 | 0.00 | 0.00 | 57 | 1017.3 |
| 20260902025014 | 85 | 248 | 2.0 | 5.0 | 0.00 | 0.00 | 0.00 | 57 | 1017.4 |
| 20260902024601 | 85 | 211 | 3.0 | 4.0 | 0.00 | 0.00 | 0.00 | 57 | 1017.2 |
| 20260902024514 | 85 | 211 | 3.0 | 4.0 | 0.00 | 0.00 | 0.00 | 57 | 1017.2 |
| 20260902024013 | 86 | 128 | 3.0 | 3.0 | 0.00 | 0.00 | 0.00 | 56 | 1017.2 |
| 20260902023513 | 86 | 184 | 1.0 | 3.0 | 0.00 | 0.00 | 0.00 | 56 | 1017.2 |
| 20260902023012 | 86 | 212 | 2.0 | 6.0 | 0.00 | 0.00 | 0.00 | 55 | 1017.3 |
| 20260902022512 | 86 | 245 | 2.0 | 4.0 | 0.00 | 0.00 | 0.00 | 55 | 1017.3 |
| 20260902022011 | 86 | 224 | 2.0 | 5.0 | 0.00 | 0.00 | 0.00 | 54 | 1017.3 |
| 20260902021511 | 86 | 239 | 4.0 | 5.0 | 0.00 | 0.00 | 0.00 | 54 | 1017.2 |
| 20260902021010 | 87 | 231 | 3.0 | 4.0 | 0.00 | 0.00 | 0.00 | 54 | 1017.3 |
| 20260902020009 | 87 | 211 | 3.0 | 3.0 | 0.00 | 0.00 | 0.00 | 53 | 1017.2 |
| 20260902015508 | 87 | 228 | 2.0 | 5.0 | 0.00 | 0.00 | 0.00 | 53 | 1017.2 |
| 20260902015008 | 87 | 226 | 2.0 | 3.0 | 0.00 | 0.00 | 0.00 | 53 | 1017.1 |
| 20260902014507 | 87 | 249 | 2.0 | 4.0 | 0.00 | 0.00 | 0.00 | 52 | 1017.1 |
| 20260902014007 | 88 | 271 | 0.0 | 6.0 | 0.00 | 0.00 | 0.00 | 52 | 1017.1 |
| 20260902013506 | 88 | 284 | 2.0 | 7.0 | 0.00 | 0.00 | 0.00 | 51 | 1017.0 |
| 20260902013006 | 88 | 245 | 4.0 | 6.0 | 0.00 | 0.00 | 0.00 | 51 | 1017.1 |
| 20260902012505 | 88 | 250 | 3.0 | 4.0 | 0.00 | 0.00 | 0.00 | 50 | 1016.9 |
| 20260902012005 | 88 | 271 | 0.0 | 4.0 | 0.00 | 0.00 | 0.00 | 50 | 1016.8 |
| 20260902011504 | 88 | 219 | 2.0 | 6.0 | 0.00 | 0.00 | 0.00 | 49 | 1016.8 |
| 20260902011004 | 88 | 219 | 3.0 | 8.0 | 0.00 | 0.00 | 0.00 | 49 | 1016.8 |
| 20260902010503 | 88 | 201 | 5.0 | 6.0 | 0.00 | 0.00 | 0.00 | 49 | 1016.8 |
| 20260902010003 | 88 | 204 | 2.0 | 7.0 | 0.00 | 0.00 | 0.00 | 49 | 1016.7 |
| 20260902005502 | 89 | 165 | 4.0 | 7.0 | 0.00 | 0.00 | 0.00 | 49 | 1016.7 |
| 20260902005002 | 89 | 201 | 4.0 | 7.0 | 0.00 | 0.00 | 0.00 | 49 | 1016.6 |
| 20260902004501 | 89 | 203 | 5.0 | 8.0 | 0.00 | 0.00 | 0.00 | 49 | 1016.6 |
| 20260902004001 | 89 | 218 | 3.0 | 5.0 | 0.00 | 0.00 | 0.00 | 48 | 1016.6 |
| 20260902003000 | 89 | 240 | 2.0 | 4.0 | 0.00 | 0.00 | 0.00 | 48 | 1016.6 |
| 20260902002459 | 89 | 201 | 2.0 | 5.0 | 0.00 | 0.00 | 0.00 | 48 | 1016.5 |
| 20260902001958 | 90 | 210 | 2.0 | 5.0 | 0.00 | 0.00 | 0.00 | 47 | 1016.6 |
| 20260902001458 | 90 | 224 | 3.0 | 7.0 | 0.00 | 0.00 | 0.00 | 46 | 1016.7 |
| 20260902000957 | 90 | 222 | 2.0 | 7.0 | 0.00 | 0.00 | 0.00 | 46 | 1016.7 |
| 20260902000458 | 90 | 215 | 3.0 | 7.0 | 0.00 | 0.00 | 0.00 | 46 | 1016.8 |
| 20260901235956 | 90 | 224 | 4.0 | 4.0 | 0.00 | 0.00 | 0.00 | 46 | 1016.8 |
| 20260901235456 | 91 | 191 | 3.0 | 4.0 | 0.00 | 0.00 | 0.00 | 46 | 1016.8 |
| 20260901234955 | 91 | 215 | 3.0 | 5.0 | 0.00 | 0.00 | 0.00 | 45 | 1016.8 |
| 20260901234455 | 91 | 225 | 3.0 | 6.0 | 0.00 | 0.00 | 0.00 | 45 | 1016.8 |
| 20260901233954 | 91 | 264 | 3.0 | 9.0 | 0.00 | 0.00 | 0.00 | 45 | 1016.8 |
| 20260901233454 | 91 | 218 | 6.0 | 8.0 | 0.00 | 0.00 | 0.00 | 45 | 1016.9 |
| 20260901232953 | 92 | 243 | 6.0 | 9.0 | 0.00 | 0.00 | 0.00 | 45 | 1016.9 |
| 20260901232453 | 92 | 242 | 5.0 | 8.0 | 0.00 | 0.00 | 0.00 | 44 | 1016.9 |
| 20260901231952 | 92 | 256 | 6.0 | 8.0 | 0.00 | 0.00 | 0.00 | 44 | 1016.9 |
| 20260901231452 | 92 | 250 | 4.0 | 10.0 | 0.00 | 0.00 | 0.00 | 43 | 1016.9 |
| 20260901230951 | 92 | 224 | 8.0 | 8.0 | 0.00 | 0.00 | 0.00 | 42 | 1016.9 |
| 20260901230451 | 93 | 238 | 3.0 | 7.0 | 0.00 | 0.00 | 0.00 | 43 | 1016.9 |
| 20260901225950 | 93 | 259 | 5.0 | 9.0 | 0.00 | 0.00 | 0.00 | 42 | 1017.0 |
| 20260901225450 | 93 | 316 | 3.0 | 8.0 | 0.00 | 0.00 | 0.00 | 42 | 1016.9 |
| 20260901224949 | 93 | 253 | 4.0 | 9.0 | 0.00 | 0.00 | 0.00 | 41 | 1016.9 |
| 20260901224449 | 93 | 260 | 6.0 | 9.0 | 0.00 | 0.00 | 0.00 | 41 | 1016.9 |
| 20260901223948 | 93 | 243 | 4.0 | 9.0 | 0.00 | 0.00 | 0.00 | 41 | 1016.9 |
| 20260901223447 | 93 | 231 | 6.0 | 11.0 | 0.00 | 0.00 | 0.00 | 41 | 1016.9 |
| 20260901222947 | 93 | 267 | 7.0 | 11.0 | 0.00 | 0.00 | 0.00 | 41 | 1016.9 |
| 20260901222446 | 94 | 212 | 3.0 | 9.0 | 0.00 | 0.00 | 0.00 | 41 | 1016.8 |
| 20260901220945 | 94 | 225 | 5.0 | 10.0 | 0.00 | 0.00 | 0.00 | 41 | 1016.8 |
| 20260901220444 | 93 | 222 | 8.0 | 11.0 | 0.00 | 0.00 | 0.00 | 40 | 1016.8 |
| 20260901215944 | 93 | 246 | 6.0 | 11.0 | 0.00 | 0.00 | 0.00 | 39 | 1016.8 |
| 20260901215443 | 94 | 253 | 7.0 | 12.0 | 0.00 | 0.00 | 0.00 | 40 | 1016.8 |
| 20260901214943 | 94 | 290 | 8.0 | 10.0 | 0.00 | 0.00 | 0.00 | 39 | 1016.8 |
| 20260901214442 | 94 | 228 | 5.0 | 10.0 | 0.00 | 0.00 | 0.00 | 39 | 1016.7 |
| 20260901213942 | 94 | 328 | 6.0 | 12.0 | 0.00 | 0.00 | 0.00 | 39 | 1016.7 |
| 20260901213441 | 94 | 256 | 8.0 | 9.0 | 0.00 | 0.00 | 0.00 | 40 | 1016.7 |
| 20260901212941 | 94 | 243 | 4.0 | 14.0 | 0.00 | 0.00 | 0.00 | 40 | 1016.7 |
| 20260901212440 | 93 | 262 | 11.0 | 12.0 | 0.00 | 0.00 | 0.00 | 39 | 1016.8 |
| 20260901211940 | 94 | 207 | 5.0 | 13.0 | 0.00 | 0.00 | 0.00 | 40 | 1016.8 |
| 20260901211439 | 93 | 233 | 7.0 | 15.0 | 0.00 | 0.00 | 0.00 | 40 | 1016.8 |
| 20260901210939 | 94 | 260 | 8.0 | 16.0 | 0.00 | 0.00 | 0.00 | 40 | 1016.7 |
| 20260901210438 | 94 | 250 | 5.0 | 12.0 | 0.00 | 0.00 | 0.00 | 40 | 1016.8 |
| 20260901205938 | 94 | 197 | 7.0 | 16.0 | 0.00 | 0.00 | 0.00 | 41 | 1016.8 |
| 20260901205437 | 94 | 239 | 6.0 | 14.0 | 0.00 | 0.00 | 0.00 | 40 | 1016.8 |
| 20260901204936 | 94 | 229 | 6.0 | 10.0 | 0.00 | 0.00 | 0.00 | 40 | 1016.9 |
| 20260901204436 | 94 | 232 | 5.0 | 12.0 | 0.00 | 0.00 | 0.00 | 41 | 1016.9 |
| 20260901203935 | 94 | 212 | 9.0 | 14.0 | 0.00 | 0.00 | 0.00 | 41 | 1016.9 |
| 20260901203435 | 93 | 208 | 6.0 | 14.0 | 0.00 | 0.00 | 0.00 | 41 | 1016.9 |
| 20260901202934 | 93 | 233 | 8.0 | 14.0 | 0.00 | 0.00 | 0.00 | 42 | 1016.9 |
| 20260901202434 | 94 | 231 | 8.0 | 14.0 | 0.00 | 0.00 | 0.00 | 40 | 1016.9 |
| 20260901201933 | 93 | 203 | 4.0 | 14.0 | 0.00 | 0.00 | 0.00 | 42 | 1016.9 |
| 20260901201433 | 93 | 236 | 10.0 | 15.0 | 0.00 | 0.00 | 0.00 | 41 | 1016.9 |
| 20260901200432 | 94 | 201 | 6.0 | 17.0 | 0.00 | 0.00 | 0.00 | 43 | 1016.9 |
| 20260901195931 | 93 | 232 | 11.0 | 17.0 | 0.00 | 0.00 | 0.00 | 41 | 1017.0 |
| 20260901195431 | 94 | 222 | 7.0 | 16.0 | 0.00 | 0.00 | 0.00 | 43 | 1017.0 |
| 20260901194930 | 93 | 211 | 8.0 | 17.0 | 0.00 | 0.00 | 0.00 | 42 | 1017.0 |
| 20260901194431 | 93 | 194 | 11.0 | 14.0 | 0.00 | 0.00 | 0.00 | 41 | 1017.1 |
| 20260901193928 | 93 | 218 | 7.0 | 14.0 | 0.00 | 0.00 | 0.00 | 41 | 1017.2 |
| 20260901192927 | 93 | 204 | 7.0 | 14.0 | 0.00 | 0.00 | 0.00 | 42 | 1017.2 |
| 20260901192427 | 92 | 204 | 9.0 | 14.0 | 0.00 | 0.00 | 0.00 | 43 | 1017.3 |
| 20260901191926 | 93 | 232 | 8.0 | 16.0 | 0.00 | 0.00 | 0.00 | 43 | 1017.3 |
| 20260901191425 | 93 | 219 | 8.0 | 15.0 | 0.00 | 0.00 | 0.00 | 42 | 1017.3 |
| 20260901190925 | 93 | 180 | 8.0 | 13.0 | 0.00 | 0.00 | 0.00 | 43 | 1017.4 |
| 20260901190424 | 93 | 215 | 6.0 | 17.0 | 0.00 | 0.00 | 0.00 | 44 | 1017.5 |
| 20260901185924 | 93 | 239 | 7.0 | 16.0 | 0.00 | 0.00 | 0.00 | 44 | 1017.5 |
| 20260901185423 | 93 | 169 | 7.0 | 11.0 | 0.00 | 0.00 | 0.00 | 45 | 1017.5 |
| 20260901184923 | 93 | 205 | 4.0 | 13.0 | 0.00 | 0.00 | 0.00 | 45 | 1017.6 |
| 20260901184422 | 93 | 239 | 7.0 | 13.0 | 0.00 | 0.00 | 0.00 | 44 | 1017.6 |
| 20260901183922 | 92 | 248 | 8.0 | 12.0 | 0.00 | 0.00 | 0.00 | 42 | 1017.7 |
| 20260901183421 | 92 | 219 | 6.0 | 13.0 | 0.00 | 0.00 | 0.00 | 47 | 1017.6 |
| 20260901182921 | 92 | 264 | 7.0 | 14.0 | 0.00 | 0.00 | 0.00 | 46 | 1017.7 |
| 20260901182420 | 92 | 210 | 8.0 | 13.0 | 0.00 | 0.00 | 0.00 | 45 | 1017.7 |
| 20260901181920 | 92 | 233 | 9.0 | 16.0 | 0.00 | 0.00 | 0.00 | 43 | 1017.7 |
| 20260901181419 | 92 | 218 | 7.0 | 12.0 | 0.00 | 0.00 | 0.00 | 42 | 1017.8 |
| 20260901180919 | 91 | 236 | 8.0 | 11.0 | 0.00 | 0.00 | 0.00 | 45 | 1017.8 |
| 20260901180418 | 91 | 214 | 6.0 | 13.0 | 0.00 | 0.00 | 0.00 | 45 | 1017.8 |
| 20260901175918 | 91 | 255 | 7.0 | 12.0 | 0.00 | 0.00 | 0.00 | 45 | 1017.9 |
| 20260901175417 | 91 | 240 | 8.0 | 15.0 | 0.00 | 0.00 | 0.00 | 45 | 1017.9 |
| 20260901174917 | 91 | 183 | 5.0 | 13.0 | 0.00 | 0.00 | 0.00 | 46 | 1017.9 |
| 20260901174416 | 91 | 211 | 8.0 | 15.0 | 0.00 | 0.00 | 0.00 | 45 | 1018.0 |
| 20260901173915 | 90 | 256 | 9.0 | 13.0 | 0.00 | 0.00 | 0.00 | 46 | 1018.0 |
| 20260901173415 | 90 | 235 | 9.0 | 13.0 | 0.00 | 0.00 | 0.00 | 47 | 1018.1 |
| 20260901172914 | 91 | 212 | 10.0 | 13.0 | 0.00 | 0.00 | 0.00 | 48 | 1018.1 |
| 20260901171913 | 91 | 262 | 4.0 | 10.0 | 0.00 | 0.00 | 0.00 | 47 | 1018.2 |
| 20260901171413 | 89 | 208 | 8.0 | 11.0 | 0.00 | 0.00 | 0.00 | 49 | 1018.2 |
| 20260901170912 | 90 | 221 | 5.0 | 10.0 | 0.00 | 0.00 | 0.00 | 49 | 1018.2 |
| 20260901170412 | 89 | 270 | 7.0 | 13.0 | 0.00 | 0.00 | 0.00 | 51 | 1018.3 |
| 20260901165911 | 89 | 215 | 10.0 | 14.0 | 0.00 | 0.00 | 0.00 | 51 | 1018.4 |
| 20260901165411 | 89 | 211 | 8.0 | 12.0 | 0.00 | 0.00 | 0.00 | 53 | 1018.4 |
| 20260901164910 | 88 | 231 | 8.0 | 11.0 | 0.00 | 0.00 | 0.00 | 54 | 1018.6 |
| 20260901164410 | 88 | 222 | 5.0 | 12.0 | 0.00 | 0.00 | 0.00 | 53 | 1018.6 |
| 20260901163909 | 88 | 231 | 5.0 | 10.0 | 0.00 | 0.00 | 0.00 | 52 | 1018.6 |
| 20260901163409 | 88 | 249 | 4.0 | 11.0 | 0.00 | 0.00 | 0.00 | 53 | 1018.6 |
| 20260901162908 | 88 | 228 | 6.0 | 11.0 | 0.00 | 0.00 | 0.00 | 55 | 1018.7 |
| 20260901162408 | 88 | 195 | 8.0 | 12.0 | 0.00 | 0.00 | 0.00 | 55 | 1018.7 |
| 20260901161907 | 87 | 215 | 7.0 | 12.0 | 0.00 | 0.00 | 0.00 | 55 | 1018.7 |
| 20260901161407 | 87 | 207 | 8.0 | 14.0 | 0.00 | 0.00 | 0.00 | 56 | 1018.7 |
| 20260901160906 | 87 | 256 | 10.0 | 12.0 | 0.00 | 0.00 | 0.00 | 56 | 1018.6 |
| 20260901160405 | 87 | 203 | 7.0 | 15.0 | 0.00 | 0.00 | 0.00 | 56 | 1018.7 |
| 20260901155905 | 87 | 228 | 9.0 | 18.0 | 0.00 | 0.00 | 0.00 | 56 | 1018.8 |
| 20260901155404 | 86 | 248 | 5.0 | 13.0 | 0.00 | 0.00 | 0.00 | 57 | 1018.9 |
| 20260901154904 | 86 | 252 | 8.0 | 13.0 | 0.00 | 0.00 | 0.00 | 58 | 1018.9 |
| 20260901154403 | 86 | 225 | 8.0 | 13.0 | 0.00 | 0.00 | 0.00 | 57 | 1019.0 |
| 20260901153903 | 86 | 224 | 8.0 | 12.0 | 0.00 | 0.00 | 0.00 | 57 | 1019.0 |
| 20260901153402 | 86 | 75 | 5.0 | 14.0 | 0.00 | 0.00 | 0.00 | 59 | 1019.0 |
| 20260901152902 | 86 | 187 | 7.0 | 12.0 | 0.00 | 0.00 | 0.00 | 59 | 1019.0 |
| 20260901151901 | 85 | 219 | 5.0 | 12.0 | 0.00 | 0.00 | 0.00 | 60 | 1018.9 |
| 20260901151400 | 85 | 238 | 7.0 | 13.0 | 0.00 | 0.00 | 0.00 | 60 | 1019.0 |
| 20260901150900 | 84 | 233 | 9.0 | 14.0 | 0.00 | 0.00 | 0.00 | 60 | 1018.9 |
| 20260901145859 | 84 | 231 | 8.0 | 11.0 | 0.00 | 0.00 | 0.00 | 60 | 1019.0 |
| 20260901145358 | 84 | 205 | 8.0 | 12.0 | 0.00 | 0.00 | 0.00 | 61 | 1019.0 |
| 20260901144858 | 84 | 200 | 5.0 | 11.0 | 0.00 | 0.00 | 0.00 | 61 | 1019.1 |
| 20260901144357 | 84 | 211 | 7.0 | 12.0 | 0.00 | 0.00 | 0.00 | 62 | 1019.1 |
| 20260901143857 | 83 | 246 | 4.0 | 11.0 | 0.00 | 0.00 | 0.00 | 63 | 1019.0 |